Orbital Elements at Epoch 2459000.5 (2020-May-31.0) TDB
Reference: JPL 21 (heliocentric ecliptic J2000)
Element | Value | Uncertainty (1-sigma) | Units |
e | .1274112087786017 | 3.7036e-08 | |
a | 2.281424520702066 | 9.7818e-09 | au |
q | 1.990745464782274 | 8.3074e-08 | au |
i | 3.700634993861605 | 4.8868e-06 | deg |
node | 162.5164596457433 | 6.5671e-05 | deg |
peri | 105.2514140952198 | 6.8856e-05 | deg |
M | 225.7194561139494 | 2.0596e-05 | deg |
tp | 2459469.981166810389 (2021-Sep-12.48116681) | 7.2611e-05 | TDB |
period | 1258.657547553303 3.45 | 8.0949e-06 2.216e-08 | d yr |
n | .2860190213770234 | 1.8395e-09 | deg/d |
Q | 2.572103576621858 | 1.1028e-08 | au |
|
| | Orbit Determination Parameters
Additional Information
|